Data supplied by UK-AIR on 30/3/2010
All Data GMT hour ending 
Status: R =Ratified P=Provisional,P*=As supplied
,,Bottesford,,,,,,,,,,,,,,,,,,,,,,,
Date,time,"Ozone",status,unit
 
01-01-2009,01:00,0,R,ugm-3
01-01-2009,02:00,0,R,ugm-3
01-01-2009,03:00,0,R,ugm-3
01-01-2009,04:00,0,R,ugm-3
01-01-2009,05:00,0,R,ugm-3
01-01-2009,06:00,0,R,ugm-3
01-01-2009,07:00,0,R,ugm-3
01-01-2009,08:00,0,R,ugm-3
01-01-2009,09:00,0,R,ugm-3
01-01-2009,10:00,0,R,ugm-3
01-01-2009,11:00,2,R,ugm-3
01-01-2009,12:00,4,R,ugm-3
01-01-2009,13:00,4,R,ugm-3
01-01-2009,14:00,8,R,ugm-3
01-01-2009,15:00,6,R,ugm-3
01-01-2009,16:00,2,R,ugm-3
01-01-2009,17:00,0,R,ugm-3
01-01-2009,18:00,0,R,ugm-3
01-01-2009,19:00,0,R,ugm-3
01-01-2009,20:00,0,R,ugm-3
01-01-2009,21:00,0,R,ugm-3
01-01-2009,22:00,0,R,ugm-3
01-01-2009,23:00,0,R,ugm-3
01-01-2009,24:00,0,R,ugm-3
02-01-2009,01:00,0,R,ugm-3
02-01-2009,02:00,0,R,ugm-3
02-01-2009,03:00,0,R,ugm-3
02-01-2009,04:00,2,R,ugm-3
02-01-2009,05:00,10,R,ugm-3
02-01-2009,06:00,12,R,ugm-3
02-01-2009,07:00,10,R,ugm-3
02-01-2009,08:00,2,R,ugm-3
02-01-2009,09:00,4,R,ugm-3
02-01-2009,10:00,6,R,ugm-3
02-01-2009,11:00,14,R,ugm-3
02-01-2009,12:00,20,R,ugm-3
02-01-2009,13:00,38,R,ugm-3
02-01-2009,14:00,42,R,ugm-3
02-01-2009,15:00,46,R,ugm-3
02-01-2009,16:00,42,R,ugm-3
02-01-2009,17:00,32,R,ugm-3
02-01-2009,18:00,30,R,ugm-3
02-01-2009,19:00,28,R,ugm-3
02-01-2009,20:00,24,R,ugm-3
02-01-2009,21:00,28,R,ugm-3
02-01-2009,22:00,34,R,ugm-3
02-01-2009,23:00,24,R,ugm-3
02-01-2009,24:00,16,R,ugm-3
03-01-2009,01:00,6,R,ugm-3
03-01-2009,02:00,10,R,ugm-3
03-01-2009,03:00,20,R,ugm-3
03-01-2009,04:00,14,R,ugm-3
03-01-2009,05:00,12,R,ugm-3
03-01-2009,06:00,12,R,ugm-3
03-01-2009,07:00,12,R,ugm-3
03-01-2009,08:00,14,R,ugm-3
03-01-2009,09:00,10,R,ugm-3
03-01-2009,10:00,10,R,ugm-3
03-01-2009,11:00,16,R,ugm-3
03-01-2009,12:00,20,R,ugm-3
03-01-2009,13:00,20,R,ugm-3
03-01-2009,14:00,38,R,ugm-3
03-01-2009,15:00,42,R,ugm-3
03-01-2009,16:00,40,R,ugm-3
03-01-2009,17:00,42,R,ugm-3
03-01-2009,18:00,36,R,ugm-3
03-01-2009,19:00,38,R,ugm-3
03-01-2009,20:00,38,R,ugm-3
03-01-2009,21:00,42,R,ugm-3
03-01-2009,22:00,36,R,ugm-3
03-01-2009,23:00,36,R,ugm-3
03-01-2009,24:00,28,R,ugm-3
04-01-2009,01:00,18,R,ugm-3
04-01-2009,02:00,30,R,ugm-3
04-01-2009,03:00,38,R,ugm-3
04-01-2009,04:00,36,R,ugm-3
04-01-2009,05:00,36,R,ugm-3
04-01-2009,06:00,36,R,ugm-3
04-01-2009,07:00,36,R,ugm-3
04-01-2009,08:00,38,R,ugm-3
04-01-2009,09:00,38,R,ugm-3
04-01-2009,10:00,36,R,ugm-3
04-01-2009,11:00,32,R,ugm-3
04-01-2009,12:00,30,R,ugm-3
04-01-2009,13:00,30,R,ugm-3
04-01-2009,14:00,26,R,ugm-3
04-01-2009,15:00,22,R,ugm-3
04-01-2009,16:00,18,R,ugm-3
04-01-2009,17:00,12,R,ugm-3
04-01-2009,18:00,12,R,ugm-3
04-01-2009,19:00,8,R,ugm-3
04-01-2009,20:00,8,R,ugm-3
04-01-2009,21:00,6,R,ugm-3
04-01-2009,22:00,6,R,ugm-3
04-01-2009,23:00,12,R,ugm-3
04-01-2009,24:00,6,R,ugm-3
05-01-2009,01:00,2,R,ugm-3
05-01-2009,02:00,22,R,ugm-3
05-01-2009,03:00,24,R,ugm-3
05-01-2009,04:00,30,R,ugm-3
05-01-2009,05:00,38,R,ugm-3
05-01-2009,06:00,42,R,ugm-3
05-01-2009,07:00,48,R,ugm-3
05-01-2009,08:00,32,R,ugm-3
05-01-2009,09:00,40,R,ugm-3
05-01-2009,10:00,34,R,ugm-3
05-01-2009,11:00,48,R,ugm-3
05-01-2009,12:00,48,R,ugm-3
05-01-2009,13:00,58,R,ugm-3
05-01-2009,14:00,58,R,ugm-3
05-01-2009,15:00,56,R,ugm-3
05-01-2009,16:00,56,R,ugm-3
05-01-2009,17:00,60,R,ugm-3
05-01-2009,18:00,54,R,ugm-3
05-01-2009,19:00,48,R,ugm-3
05-01-2009,20:00,48,R,ugm-3
05-01-2009,21:00,54,R,ugm-3
05-01-2009,22:00,56,R,ugm-3
05-01-2009,23:00,54,R,ugm-3
05-01-2009,24:00,50,R,ugm-3
06-01-2009,01:00,46,R,ugm-3
06-01-2009,02:00,38,R,ugm-3
06-01-2009,03:00,32,R,ugm-3
06-01-2009,04:00,26,R,ugm-3
06-01-2009,05:00,18,R,ugm-3
06-01-2009,06:00,18,R,ugm-3
06-01-2009,07:00,16,R,ugm-3
06-01-2009,08:00,10,R,ugm-3
06-01-2009,09:00,10,R,ugm-3
06-01-2009,10:00,14,R,ugm-3
06-01-2009,11:00,18,R,ugm-3
06-01-2009,12:00,14,R,ugm-3
06-01-2009,13:00,18,R,ugm-3
06-01-2009,14:00,20,R,ugm-3
06-01-2009,15:00,18,R,ugm-3
06-01-2009,16:00,12,R,ugm-3
06-01-2009,17:00,0,R,ugm-3
06-01-2009,18:00,0,R,ugm-3
06-01-2009,19:00,0,R,ugm-3
06-01-2009,20:00,0,R,ugm-3
06-01-2009,21:00,0,R,ugm-3
06-01-2009,22:00,0,R,ugm-3
06-01-2009,23:00,4,R,ugm-3
06-01-2009,24:00,8,R,ugm-3
07-01-2009,01:00,8,R,ugm-3
07-01-2009,02:00,12,R,ugm-3
07-01-2009,03:00,16,R,ugm-3
07-01-2009,04:00,18,R,ugm-3
07-01-2009,05:00,20,R,ugm-3
07-01-2009,06:00,20,R,ugm-3
07-01-2009,07:00,18,R,ugm-3
07-01-2009,08:00,14,R,ugm-3
07-01-2009,09:00,14,R,ugm-3
07-01-2009,10:00,10,R,ugm-3
07-01-2009,11:00,12,R,ugm-3
07-01-2009,12:00,12,R,ugm-3
07-01-2009,13:00,14,R,ugm-3
07-01-2009,14:00,14,R,ugm-3
07-01-2009,15:00,6,R,ugm-3
07-01-2009,16:00,2,R,ugm-3
07-01-2009,17:00,0,R,ugm-3
07-01-2009,18:00,0,R,ugm-3
07-01-2009,19:00,0,R,ugm-3
07-01-2009,20:00,4,R,ugm-3
07-01-2009,21:00,0,R,ugm-3
07-01-2009,22:00,0,R,ugm-3
07-01-2009,23:00,0,R,ugm-3
07-01-2009,24:00,4,R,ugm-3
08-01-2009,01:00,4,R,ugm-3
08-01-2009,02:00,2,R,ugm-3
08-01-2009,03:00,2,R,ugm-3
08-01-2009,04:00,0,R,ugm-3
08-01-2009,05:00,0,R,ugm-3
08-01-2009,06:00,0,R,ugm-3
08-01-2009,07:00,0,R,ugm-3
08-01-2009,08:00,0,R,ugm-3
08-01-2009,09:00,0,R,ugm-3
08-01-2009,10:00,4,R,ugm-3
08-01-2009,11:00,4,R,ugm-3
08-01-2009,12:00,4,R,ugm-3
08-01-2009,13:00,6,R,ugm-3
08-01-2009,14:00,10,R,ugm-3
08-01-2009,15:00,4,R,ugm-3
08-01-2009,16:00,2,R,ugm-3
08-01-2009,17:00,2,R,ugm-3
08-01-2009,18:00,0,R,ugm-3
08-01-2009,19:00,0,R,ugm-3
08-01-2009,20:00,0,R,ugm-3
08-01-2009,21:00,8,R,ugm-3
08-01-2009,22:00,18,R,ugm-3
08-01-2009,23:00,22,R,ugm-3
08-01-2009,24:00,24,R,ugm-3
09-01-2009,01:00,24,R,ugm-3
09-01-2009,02:00,22,R,ugm-3
09-01-2009,03:00,34,R,ugm-3
09-01-2009,04:00,42,R,ugm-3
09-01-2009,05:00,38,R,ugm-3
09-01-2009,06:00,38,R,ugm-3
09-01-2009,07:00,40,R,ugm-3
09-01-2009,08:00,36,R,ugm-3
09-01-2009,09:00,28,R,ugm-3
09-01-2009,10:00,30,R,ugm-3
09-01-2009,11:00,28,R,ugm-3
09-01-2009,12:00,20,R,ugm-3
09-01-2009,13:00,16,R,ugm-3
09-01-2009,14:00,24,R,ugm-3
09-01-2009,15:00,34,R,ugm-3
09-01-2009,16:00,34,R,ugm-3
09-01-2009,17:00,20,R,ugm-3
09-01-2009,18:00,16,R,ugm-3
09-01-2009,19:00,6,R,ugm-3
09-01-2009,20:00,12,R,ugm-3
09-01-2009,21:00,22,R,ugm-3
09-01-2009,22:00,12,R,ugm-3
09-01-2009,23:00,6,R,ugm-3
09-01-2009,24:00,4,R,ugm-3
10-01-2009,01:00,4,R,ugm-3
10-01-2009,02:00,2,R,ugm-3
10-01-2009,03:00,0,R,ugm-3
10-01-2009,04:00,0,R,ugm-3
10-01-2009,05:00,0,R,ugm-3
10-01-2009,06:00,0,R,ugm-3
10-01-2009,07:00,6,R,ugm-3
10-01-2009,08:00,12,R,ugm-3
10-01-2009,09:00,12,R,ugm-3
10-01-2009,10:00,14,R,ugm-3
10-01-2009,11:00,14,R,ugm-3
10-01-2009,12:00,22,R,ugm-3
10-01-2009,13:00,24,R,ugm-3
10-01-2009,14:00,22,R,ugm-3
10-01-2009,15:00,22,R,ugm-3
10-01-2009,16:00,26,R,ugm-3
10-01-2009,17:00,26,R,ugm-3
10-01-2009,18:00,24,R,ugm-3
10-01-2009,19:00,26,R,ugm-3
10-01-2009,20:00,30,R,ugm-3
10-01-2009,21:00,30,R,ugm-3
10-01-2009,22:00,34,R,ugm-3
10-01-2009,23:00,38,R,ugm-3
10-01-2009,24:00,36,R,ugm-3
11-01-2009,01:00,38,R,ugm-3
11-01-2009,02:00,42,R,ugm-3
11-01-2009,03:00,46,R,ugm-3
11-01-2009,04:00,50,R,ugm-3
11-01-2009,05:00,52,R,ugm-3
11-01-2009,06:00,56,R,ugm-3
11-01-2009,07:00,56,R,ugm-3
11-01-2009,08:00,56,R,ugm-3
11-01-2009,09:00,58,R,ugm-3
11-01-2009,10:00,58,R,ugm-3
11-01-2009,11:00,56,R,ugm-3
11-01-2009,12:00,58,R,ugm-3
11-01-2009,13:00,58,R,ugm-3
11-01-2009,14:00,56,R,ugm-3
11-01-2009,15:00,60,R,ugm-3
11-01-2009,16:00,60,R,ugm-3
11-01-2009,17:00,62,R,ugm-3
11-01-2009,18:00,64,R,ugm-3
11-01-2009,19:00,64,R,ugm-3
11-01-2009,20:00,64,R,ugm-3
11-01-2009,21:00,66,R,ugm-3
11-01-2009,22:00,64,R,ugm-3
11-01-2009,23:00,64,R,ugm-3
11-01-2009,24:00,64,R,ugm-3
12-01-2009,01:00,64,R,ugm-3
12-01-2009,02:00,66,R,ugm-3
12-01-2009,03:00,66,R,ugm-3
12-01-2009,04:00,66,R,ugm-3
12-01-2009,05:00,68,R,ugm-3
12-01-2009,06:00,66,R,ugm-3
12-01-2009,07:00,64,R,ugm-3
12-01-2009,08:00,64,R,ugm-3
12-01-2009,09:00,60,R,ugm-3
12-01-2009,10:00,60,R,ugm-3
12-01-2009,11:00,60,R,ugm-3
12-01-2009,12:00,60,R,ugm-3
12-01-2009,13:00,58,R,ugm-3
12-01-2009,14:00,58,R,ugm-3
12-01-2009,15:00,58,R,ugm-3
12-01-2009,16:00,52,R,ugm-3
12-01-2009,17:00,46,R,ugm-3
12-01-2009,18:00,42,R,ugm-3
12-01-2009,19:00,40,R,ugm-3
12-01-2009,20:00,48,R,ugm-3
12-01-2009,21:00,44,R,ugm-3
12-01-2009,22:00,46,R,ugm-3
12-01-2009,23:00,44,R,ugm-3
12-01-2009,24:00,50,R,ugm-3
13-01-2009,01:00,54,R,ugm-3
13-01-2009,02:00,52,R,ugm-3
13-01-2009,03:00,60,R,ugm-3
13-01-2009,04:00,60,R,ugm-3
13-01-2009,05:00,58,R,ugm-3
13-01-2009,06:00,54,R,ugm-3
13-01-2009,07:00,48,R,ugm-3
13-01-2009,08:00,38,R,ugm-3
13-01-2009,09:00,36,R,ugm-3
13-01-2009,10:00,38,R,ugm-3
13-01-2009,11:00,,,
13-01-2009,12:00,,,
13-01-2009,13:00,,,
13-01-2009,14:00,,,
13-01-2009,15:00,36,R,ugm-3
13-01-2009,16:00,36,R,ugm-3
13-01-2009,17:00,28,R,ugm-3
13-01-2009,18:00,24,R,ugm-3
13-01-2009,19:00,22,R,ugm-3
13-01-2009,20:00,18,R,ugm-3
13-01-2009,21:00,16,R,ugm-3
13-01-2009,22:00,14,R,ugm-3
13-01-2009,23:00,12,R,ugm-3
13-01-2009,24:00,4,R,ugm-3
14-01-2009,01:00,2,R,ugm-3
14-01-2009,02:00,4,R,ugm-3
14-01-2009,03:00,4,R,ugm-3
14-01-2009,04:00,10,R,ugm-3
14-01-2009,05:00,12,R,ugm-3
14-01-2009,06:00,14,R,ugm-3
14-01-2009,07:00,18,R,ugm-3
14-01-2009,08:00,18,R,ugm-3
14-01-2009,09:00,16,R,ugm-3
14-01-2009,10:00,18,R,ugm-3
14-01-2009,11:00,22,R,ugm-3
14-01-2009,12:00,30,R,ugm-3
14-01-2009,13:00,30,R,ugm-3
14-01-2009,14:00,36,R,ugm-3
14-01-2009,15:00,34,R,ugm-3
14-01-2009,16:00,32,R,ugm-3
14-01-2009,17:00,36,R,ugm-3
14-01-2009,18:00,22,R,ugm-3
14-01-2009,19:00,22,R,ugm-3
14-01-2009,20:00,14,R,ugm-3
14-01-2009,21:00,18,R,ugm-3
14-01-2009,22:00,18,R,ugm-3
14-01-2009,23:00,24,R,ugm-3
14-01-2009,24:00,22,R,ugm-3
15-01-2009,01:00,34,R,ugm-3
15-01-2009,02:00,38,R,ugm-3
15-01-2009,03:00,44,R,ugm-3
15-01-2009,04:00,38,R,ugm-3
15-01-2009,05:00,36,R,ugm-3
15-01-2009,06:00,36,R,ugm-3
15-01-2009,07:00,38,R,ugm-3
15-01-2009,08:00,40,R,ugm-3
15-01-2009,09:00,34,R,ugm-3
15-01-2009,10:00,32,R,ugm-3
15-01-2009,11:00,36,R,ugm-3
15-01-2009,12:00,44,R,ugm-3
15-01-2009,13:00,44,R,ugm-3
15-01-2009,14:00,42,R,ugm-3
15-01-2009,15:00,40,R,ugm-3
15-01-2009,16:00,40,R,ugm-3
15-01-2009,17:00,38,R,ugm-3
15-01-2009,18:00,38,R,ugm-3
15-01-2009,19:00,30,R,ugm-3
15-01-2009,20:00,24,R,ugm-3
15-01-2009,21:00,24,R,ugm-3
15-01-2009,22:00,20,R,ugm-3
15-01-2009,23:00,20,R,ugm-3
15-01-2009,24:00,20,R,ugm-3
16-01-2009,01:00,28,R,ugm-3
16-01-2009,02:00,32,R,ugm-3
16-01-2009,03:00,30,R,ugm-3
16-01-2009,04:00,30,R,ugm-3
16-01-2009,05:00,32,R,ugm-3
16-01-2009,06:00,30,R,ugm-3
16-01-2009,07:00,28,R,ugm-3
16-01-2009,08:00,28,R,ugm-3
16-01-2009,09:00,34,R,ugm-3
16-01-2009,10:00,38,R,ugm-3
16-01-2009,11:00,40,R,ugm-3
16-01-2009,12:00,42,R,ugm-3
16-01-2009,13:00,40,R,ugm-3
16-01-2009,14:00,36,R,ugm-3
16-01-2009,15:00,40,R,ugm-3
16-01-2009,16:00,44,R,ugm-3
16-01-2009,17:00,44,R,ugm-3
16-01-2009,18:00,40,R,ugm-3
16-01-2009,19:00,46,R,ugm-3
16-01-2009,20:00,48,R,ugm-3
16-01-2009,21:00,50,R,ugm-3
16-01-2009,22:00,56,R,ugm-3
16-01-2009,23:00,58,R,ugm-3
16-01-2009,24:00,56,R,ugm-3
17-01-2009,01:00,56,R,ugm-3
17-01-2009,02:00,58,R,ugm-3
17-01-2009,03:00,60,R,ugm-3
17-01-2009,04:00,60,R,ugm-3
17-01-2009,05:00,60,R,ugm-3
17-01-2009,06:00,60,R,ugm-3
17-01-2009,07:00,66,R,ugm-3
17-01-2009,08:00,68,R,ugm-3
17-01-2009,09:00,78,R,ugm-3
17-01-2009,10:00,72,R,ugm-3
17-01-2009,11:00,72,R,ugm-3
17-01-2009,12:00,70,R,ugm-3
17-01-2009,13:00,70,R,ugm-3
17-01-2009,14:00,66,R,ugm-3
17-01-2009,15:00,66,R,ugm-3
17-01-2009,16:00,68,R,ugm-3
17-01-2009,17:00,66,R,ugm-3
17-01-2009,18:00,68,R,ugm-3
17-01-2009,19:00,68,R,ugm-3
17-01-2009,20:00,70,R,ugm-3
17-01-2009,21:00,74,R,ugm-3
17-01-2009,22:00,74,R,ugm-3
17-01-2009,23:00,74,R,ugm-3
17-01-2009,24:00,70,R,ugm-3
18-01-2009,01:00,86,R,ugm-3
18-01-2009,02:00,86,R,ugm-3
18-01-2009,03:00,82,R,ugm-3
18-01-2009,04:00,80,R,ugm-3
18-01-2009,05:00,72,R,ugm-3
18-01-2009,06:00,72,R,ugm-3
18-01-2009,07:00,80,R,ugm-3
18-01-2009,08:00,76,R,ugm-3
18-01-2009,09:00,70,R,ugm-3
18-01-2009,10:00,70,R,ugm-3
18-01-2009,11:00,72,R,ugm-3
18-01-2009,12:00,72,R,ugm-3
18-01-2009,13:00,74,R,ugm-3
18-01-2009,14:00,72,R,ugm-3
18-01-2009,15:00,68,R,ugm-3
18-01-2009,16:00,68,R,ugm-3
18-01-2009,17:00,68,R,ugm-3
18-01-2009,18:00,66,R,ugm-3
18-01-2009,19:00,64,R,ugm-3
18-01-2009,20:00,60,R,ugm-3
18-01-2009,21:00,56,R,ugm-3
18-01-2009,22:00,60,R,ugm-3
18-01-2009,23:00,64,R,ugm-3
18-01-2009,24:00,64,R,ugm-3
19-01-2009,01:00,62,R,ugm-3
19-01-2009,02:00,64,R,ugm-3
19-01-2009,03:00,66,R,ugm-3
19-01-2009,04:00,62,R,ugm-3
19-01-2009,05:00,60,R,ugm-3
19-01-2009,06:00,64,R,ugm-3
19-01-2009,07:00,70,R,ugm-3
19-01-2009,08:00,72,R,ugm-3
19-01-2009,09:00,68,R,ugm-3
19-01-2009,10:00,64,R,ugm-3
19-01-2009,11:00,58,R,ugm-3
19-01-2009,12:00,62,R,ugm-3
19-01-2009,13:00,58,R,ugm-3
19-01-2009,14:00,68,R,ugm-3
19-01-2009,15:00,76,R,ugm-3
19-01-2009,16:00,74,R,ugm-3
19-01-2009,17:00,70,R,ugm-3
19-01-2009,18:00,60,R,ugm-3
19-01-2009,19:00,64,R,ugm-3
19-01-2009,20:00,56,R,ugm-3
19-01-2009,21:00,56,R,ugm-3
19-01-2009,22:00,58,R,ugm-3
19-01-2009,23:00,60,R,ugm-3
19-01-2009,24:00,62,R,ugm-3
20-01-2009,01:00,60,R,ugm-3
20-01-2009,02:00,60,R,ugm-3
20-01-2009,03:00,60,R,ugm-3
20-01-2009,04:00,62,R,ugm-3
20-01-2009,05:00,60,R,ugm-3
20-01-2009,06:00,56,R,ugm-3
20-01-2009,07:00,58,R,ugm-3
20-01-2009,08:00,56,R,ugm-3
20-01-2009,09:00,50,R,ugm-3
20-01-2009,10:00,48,R,ugm-3
20-01-2009,11:00,48,R,ugm-3
20-01-2009,12:00,46,R,ugm-3
20-01-2009,13:00,48,R,ugm-3
20-01-2009,14:00,54,R,ugm-3
20-01-2009,15:00,52,R,ugm-3
20-01-2009,16:00,52,R,ugm-3
20-01-2009,17:00,44,R,ugm-3
20-01-2009,18:00,40,R,ugm-3
20-01-2009,19:00,44,R,ugm-3
20-01-2009,20:00,32,R,ugm-3
20-01-2009,21:00,36,R,ugm-3
20-01-2009,22:00,38,R,ugm-3
20-01-2009,23:00,40,R,ugm-3
20-01-2009,24:00,44,R,ugm-3
21-01-2009,01:00,42,R,ugm-3
21-01-2009,02:00,44,R,ugm-3
21-01-2009,03:00,44,R,ugm-3
21-01-2009,04:00,46,R,ugm-3
21-01-2009,05:00,42,R,ugm-3
21-01-2009,06:00,38,R,ugm-3
21-01-2009,07:00,32,R,ugm-3
21-01-2009,08:00,28,R,ugm-3
21-01-2009,09:00,22,R,ugm-3
21-01-2009,10:00,26,R,ugm-3
21-01-2009,11:00,30,R,ugm-3
21-01-2009,12:00,36,R,ugm-3
21-01-2009,13:00,46,R,ugm-3
21-01-2009,14:00,64,R,ugm-3
21-01-2009,15:00,62,R,ugm-3
21-01-2009,16:00,56,R,ugm-3
21-01-2009,17:00,54,R,ugm-3
21-01-2009,18:00,48,R,ugm-3
21-01-2009,19:00,46,R,ugm-3
21-01-2009,20:00,42,R,ugm-3
21-01-2009,21:00,44,R,ugm-3
21-01-2009,22:00,52,R,ugm-3
21-01-2009,23:00,56,R,ugm-3
21-01-2009,24:00,58,R,ugm-3
22-01-2009,01:00,60,R,ugm-3
22-01-2009,02:00,58,R,ugm-3
22-01-2009,03:00,56,R,ugm-3
22-01-2009,04:00,56,R,ugm-3
22-01-2009,05:00,56,R,ugm-3
22-01-2009,06:00,56,R,ugm-3
22-01-2009,07:00,56,R,ugm-3
22-01-2009,08:00,56,R,ugm-3
22-01-2009,09:00,54,R,ugm-3
22-01-2009,10:00,52,R,ugm-3
22-01-2009,11:00,58,R,ugm-3
22-01-2009,12:00,58,R,ugm-3
22-01-2009,13:00,60,R,ugm-3
22-01-2009,14:00,60,R,ugm-3
22-01-2009,15:00,64,R,ugm-3
22-01-2009,16:00,70,R,ugm-3
22-01-2009,17:00,54,R,ugm-3
22-01-2009,18:00,50,R,ugm-3
22-01-2009,19:00,46,R,ugm-3
22-01-2009,20:00,44,R,ugm-3
22-01-2009,21:00,48,R,ugm-3
22-01-2009,22:00,52,R,ugm-3
22-01-2009,23:00,50,R,ugm-3
22-01-2009,24:00,46,R,ugm-3
23-01-2009,01:00,48,R,ugm-3
23-01-2009,02:00,52,R,ugm-3
23-01-2009,03:00,54,R,ugm-3
23-01-2009,04:00,42,R,ugm-3
23-01-2009,05:00,34,R,ugm-3
23-01-2009,06:00,32,R,ugm-3
23-01-2009,07:00,24,R,ugm-3
23-01-2009,08:00,22,R,ugm-3
23-01-2009,09:00,22,R,ugm-3
23-01-2009,10:00,22,R,ugm-3
23-01-2009,11:00,30,R,ugm-3
23-01-2009,12:00,30,R,ugm-3
23-01-2009,13:00,60,R,ugm-3
23-01-2009,14:00,62,R,ugm-3
23-01-2009,15:00,60,R,ugm-3
23-01-2009,16:00,60,R,ugm-3
23-01-2009,17:00,56,R,ugm-3
23-01-2009,18:00,50,R,ugm-3
23-01-2009,19:00,54,R,ugm-3
23-01-2009,20:00,54,R,ugm-3
23-01-2009,21:00,56,R,ugm-3
23-01-2009,22:00,48,R,ugm-3
23-01-2009,23:00,42,R,ugm-3
23-01-2009,24:00,36,R,ugm-3
24-01-2009,01:00,36,R,ugm-3
24-01-2009,02:00,34,R,ugm-3
24-01-2009,03:00,32,R,ugm-3
24-01-2009,04:00,34,R,ugm-3
24-01-2009,05:00,30,R,ugm-3
24-01-2009,06:00,28,R,ugm-3
24-01-2009,07:00,32,R,ugm-3
24-01-2009,08:00,34,R,ugm-3
24-01-2009,09:00,34,R,ugm-3
24-01-2009,10:00,38,R,ugm-3
24-01-2009,11:00,40,R,ugm-3
24-01-2009,12:00,40,R,ugm-3
24-01-2009,13:00,46,R,ugm-3
24-01-2009,14:00,48,R,ugm-3
24-01-2009,15:00,46,R,ugm-3
24-01-2009,16:00,44,R,ugm-3
24-01-2009,17:00,42,R,ugm-3
24-01-2009,18:00,36,R,ugm-3
24-01-2009,19:00,46,R,ugm-3
24-01-2009,20:00,50,R,ugm-3
24-01-2009,21:00,48,R,ugm-3
24-01-2009,22:00,54,R,ugm-3
24-01-2009,23:00,56,R,ugm-3
24-01-2009,24:00,54,R,ugm-3
25-01-2009,01:00,56,R,ugm-3
25-01-2009,02:00,64,R,ugm-3
25-01-2009,03:00,66,R,ugm-3
25-01-2009,04:00,72,R,ugm-3
25-01-2009,05:00,72,R,ugm-3
25-01-2009,06:00,72,R,ugm-3
25-01-2009,07:00,70,R,ugm-3
25-01-2009,08:00,68,R,ugm-3
25-01-2009,09:00,72,R,ugm-3
25-01-2009,10:00,72,R,ugm-3
25-01-2009,11:00,66,R,ugm-3
25-01-2009,12:00,66,R,ugm-3
25-01-2009,13:00,68,R,ugm-3
25-01-2009,14:00,68,R,ugm-3
25-01-2009,15:00,68,R,ugm-3
25-01-2009,16:00,66,R,ugm-3
25-01-2009,17:00,64,R,ugm-3
25-01-2009,18:00,62,R,ugm-3
25-01-2009,19:00,58,R,ugm-3
25-01-2009,20:00,62,R,ugm-3
25-01-2009,21:00,54,R,ugm-3
25-01-2009,22:00,54,R,ugm-3
25-01-2009,23:00,48,R,ugm-3
25-01-2009,24:00,44,R,ugm-3
26-01-2009,01:00,44,R,ugm-3
26-01-2009,02:00,42,R,ugm-3
26-01-2009,03:00,40,R,ugm-3
26-01-2009,04:00,42,R,ugm-3
26-01-2009,05:00,36,R,ugm-3
26-01-2009,06:00,44,R,ugm-3
26-01-2009,07:00,44,R,ugm-3
26-01-2009,08:00,48,R,ugm-3
26-01-2009,09:00,48,R,ugm-3
26-01-2009,10:00,48,R,ugm-3
26-01-2009,11:00,52,R,ugm-3
26-01-2009,12:00,54,R,ugm-3
26-01-2009,13:00,,,
26-01-2009,14:00,64,R,ugm-3
26-01-2009,15:00,62,R,ugm-3
26-01-2009,16:00,56,R,ugm-3
26-01-2009,17:00,54,R,ugm-3
26-01-2009,18:00,50,R,ugm-3
26-01-2009,19:00,60,R,ugm-3
26-01-2009,20:00,58,R,ugm-3
26-01-2009,21:00,56,R,ugm-3
26-01-2009,22:00,50,R,ugm-3
26-01-2009,23:00,48,R,ugm-3
26-01-2009,24:00,46,R,ugm-3
27-01-2009,01:00,42,R,ugm-3
27-01-2009,02:00,36,R,ugm-3
27-01-2009,03:00,34,R,ugm-3
27-01-2009,04:00,40,R,ugm-3
27-01-2009,05:00,28,R,ugm-3
27-01-2009,06:00,30,R,ugm-3
27-01-2009,07:00,28,R,ugm-3
27-01-2009,08:00,24,R,ugm-3
27-01-2009,09:00,22,R,ugm-3
27-01-2009,10:00,24,R,ugm-3
27-01-2009,11:00,36,R,ugm-3
27-01-2009,12:00,46,R,ugm-3
27-01-2009,13:00,46,R,ugm-3
27-01-2009,14:00,46,R,ugm-3
27-01-2009,15:00,40,R,ugm-3
27-01-2009,16:00,34,R,ugm-3
27-01-2009,17:00,24,R,ugm-3
27-01-2009,18:00,28,R,ugm-3
27-01-2009,19:00,26,R,ugm-3
27-01-2009,20:00,22,R,ugm-3
27-01-2009,21:00,24,R,ugm-3
27-01-2009,22:00,26,R,ugm-3
27-01-2009,23:00,28,R,ugm-3
27-01-2009,24:00,40,R,ugm-3
28-01-2009,01:00,46,R,ugm-3
28-01-2009,02:00,48,R,ugm-3
28-01-2009,03:00,48,R,ugm-3
28-01-2009,04:00,46,R,ugm-3
28-01-2009,05:00,44,R,ugm-3
28-01-2009,06:00,40,R,ugm-3
28-01-2009,07:00,36,R,ugm-3
28-01-2009,08:00,30,R,ugm-3
28-01-2009,09:00,22,R,ugm-3
28-01-2009,10:00,10,R,ugm-3
28-01-2009,11:00,18,R,ugm-3
28-01-2009,12:00,16,R,ugm-3
28-01-2009,13:00,14,R,ugm-3
28-01-2009,14:00,10,R,ugm-3
28-01-2009,15:00,6,R,ugm-3
28-01-2009,16:00,2,R,ugm-3
28-01-2009,17:00,0,R,ugm-3
28-01-2009,18:00,0,R,ugm-3
28-01-2009,19:00,0,R,ugm-3
28-01-2009,20:00,0,R,ugm-3
28-01-2009,21:00,4,R,ugm-3
28-01-2009,22:00,0,R,ugm-3
28-01-2009,23:00,0,R,ugm-3
28-01-2009,24:00,0,R,ugm-3
29-01-2009,01:00,0,R,ugm-3
29-01-2009,02:00,6,R,ugm-3
29-01-2009,03:00,8,R,ugm-3
29-01-2009,04:00,4,R,ugm-3
29-01-2009,05:00,4,R,ugm-3
29-01-2009,06:00,14,R,ugm-3
29-01-2009,07:00,16,R,ugm-3
29-01-2009,08:00,22,R,ugm-3
29-01-2009,09:00,28,R,ugm-3
29-01-2009,10:00,32,R,ugm-3
29-01-2009,11:00,32,R,ugm-3
29-01-2009,12:00,26,R,ugm-3
29-01-2009,13:00,20,R,ugm-3
29-01-2009,14:00,26,R,ugm-3
29-01-2009,15:00,28,R,ugm-3
29-01-2009,16:00,26,R,ugm-3
29-01-2009,17:00,22,R,ugm-3
29-01-2009,18:00,8,R,ugm-3
29-01-2009,19:00,16,R,ugm-3
29-01-2009,20:00,24,R,ugm-3
29-01-2009,21:00,20,R,ugm-3
29-01-2009,22:00,14,R,ugm-3
29-01-2009,23:00,8,R,ugm-3
29-01-2009,24:00,8,R,ugm-3
30-01-2009,01:00,12,R,ugm-3
30-01-2009,02:00,16,R,ugm-3
30-01-2009,03:00,16,R,ugm-3
30-01-2009,04:00,14,R,ugm-3
30-01-2009,05:00,16,R,ugm-3
30-01-2009,06:00,16,R,ugm-3
30-01-2009,07:00,14,R,ugm-3
30-01-2009,08:00,12,R,ugm-3
30-01-2009,09:00,16,R,ugm-3
30-01-2009,10:00,20,R,ugm-3
30-01-2009,11:00,20,R,ugm-3
30-01-2009,12:00,26,R,ugm-3
30-01-2009,13:00,28,R,ugm-3
30-01-2009,14:00,24,R,ugm-3
30-01-2009,15:00,18,R,ugm-3
30-01-2009,16:00,26,R,ugm-3
30-01-2009,17:00,28,R,ugm-3
30-01-2009,18:00,24,R,ugm-3
30-01-2009,19:00,18,R,ugm-3
30-01-2009,20:00,20,R,ugm-3
30-01-2009,21:00,10,R,ugm-3
30-01-2009,22:00,0,R,ugm-3
30-01-2009,23:00,0,R,ugm-3
30-01-2009,24:00,0,R,ugm-3
31-01-2009,01:00,0,R,ugm-3
31-01-2009,02:00,2,R,ugm-3
31-01-2009,03:00,8,R,ugm-3
31-01-2009,04:00,14,R,ugm-3
31-01-2009,05:00,10,R,ugm-3
31-01-2009,06:00,10,R,ugm-3
31-01-2009,07:00,16,R,ugm-3
31-01-2009,08:00,16,R,ugm-3
31-01-2009,09:00,20,R,ugm-3
31-01-2009,10:00,24,R,ugm-3
31-01-2009,11:00,28,R,ugm-3
31-01-2009,12:00,28,R,ugm-3
31-01-2009,13:00,32,R,ugm-3
31-01-2009,14:00,36,R,ugm-3
31-01-2009,15:00,24,R,ugm-3
31-01-2009,16:00,28,R,ugm-3
31-01-2009,17:00,34,R,ugm-3
31-01-2009,18:00,36,R,ugm-3
31-01-2009,19:00,36,R,ugm-3
31-01-2009,20:00,34,R,ugm-3
31-01-2009,21:00,26,R,ugm-3
31-01-2009,22:00,28,R,ugm-3
31-01-2009,23:00,30,R,ugm-3
31-01-2009,24:00,32,R,ugm-3
01-02-2009,01:00,34,R,ugm-3
01-02-2009,02:00,34,R,ugm-3
01-02-2009,03:00,34,R,ugm-3
01-02-2009,04:00,34,R,ugm-3
01-02-2009,05:00,42,R,ugm-3
01-02-2009,06:00,48,R,ugm-3
01-02-2009,07:00,52,R,ugm-3
01-02-2009,08:00,58,R,ugm-3
01-02-2009,09:00,60,R,ugm-3
01-02-2009,10:00,56,R,ugm-3
01-02-2009,11:00,54,R,ugm-3
01-02-2009,12:00,54,R,ugm-3
01-02-2009,13:00,56,R,ugm-3
01-02-2009,14:00,62,R,ugm-3
01-02-2009,15:00,62,R,ugm-3
01-02-2009,16:00,68,R,ugm-3
01-02-2009,17:00,68,R,ugm-3
01-02-2009,18:00,68,R,ugm-3
01-02-2009,19:00,66,R,ugm-3
01-02-2009,20:00,64,R,ugm-3
01-02-2009,21:00,60,R,ugm-3
01-02-2009,22:00,56,R,ugm-3
01-02-2009,23:00,58,R,ugm-3
01-02-2009,24:00,56,R,ugm-3
02-02-2009,01:00,54,R,ugm-3
02-02-2009,02:00,54,R,ugm-3
02-02-2009,03:00,48,R,ugm-3
02-02-2009,04:00,50,R,ugm-3
02-02-2009,05:00,50,R,ugm-3
02-02-2009,06:00,50,R,ugm-3
02-02-2009,07:00,52,R,ugm-3
02-02-2009,08:00,44,R,ugm-3
02-02-2009,09:00,50,R,ugm-3
02-02-2009,10:00,54,R,ugm-3
02-02-2009,11:00,54,R,ugm-3
02-02-2009,12:00,50,R,ugm-3
02-02-2009,13:00,60,R,ugm-3
02-02-2009,14:00,56,R,ugm-3
02-02-2009,15:00,50,R,ugm-3
02-02-2009,16:00,46,R,ugm-3
02-02-2009,17:00,42,R,ugm-3
02-02-2009,18:00,38,R,ugm-3
02-02-2009,19:00,32,R,ugm-3
02-02-2009,20:00,32,R,ugm-3
02-02-2009,21:00,28,R,ugm-3
02-02-2009,22:00,26,R,ugm-3
02-02-2009,23:00,18,R,ugm-3
02-02-2009,24:00,14,R,ugm-3
03-02-2009,01:00,12,R,ugm-3
03-02-2009,02:00,8,R,ugm-3
03-02-2009,03:00,2,R,ugm-3
03-02-2009,04:00,8,R,ugm-3
03-02-2009,05:00,24,R,ugm-3
03-02-2009,06:00,34,R,ugm-3
03-02-2009,07:00,30,R,ugm-3
03-02-2009,08:00,22,R,ugm-3
03-02-2009,09:00,22,R,ugm-3
03-02-2009,10:00,28,R,ugm-3
03-02-2009,11:00,36,R,ugm-3
03-02-2009,12:00,42,R,ugm-3
03-02-2009,13:00,48,R,ugm-3
03-02-2009,14:00,48,R,ugm-3
03-02-2009,15:00,40,R,ugm-3
03-02-2009,16:00,42,R,ugm-3
03-02-2009,17:00,44,R,ugm-3
03-02-2009,18:00,40,R,ugm-3
03-02-2009,19:00,38,R,ugm-3
03-02-2009,20:00,30,R,ugm-3
03-02-2009,21:00,24,R,ugm-3
03-02-2009,22:00,24,R,ugm-3
03-02-2009,23:00,22,R,ugm-3
03-02-2009,24:00,20,R,ugm-3
04-02-2009,01:00,24,R,ugm-3
04-02-2009,02:00,20,R,ugm-3
04-02-2009,03:00,20,R,ugm-3
04-02-2009,04:00,22,R,ugm-3
04-02-2009,05:00,32,R,ugm-3
04-02-2009,06:00,38,R,ugm-3
04-02-2009,07:00,38,R,ugm-3
04-02-2009,08:00,36,R,ugm-3
04-02-2009,09:00,36,R,ugm-3
04-02-2009,10:00,40,R,ugm-3
04-02-2009,11:00,46,R,ugm-3
04-02-2009,12:00,48,R,ugm-3
04-02-2009,13:00,52,R,ugm-3
04-02-2009,14:00,46,R,ugm-3
04-02-2009,15:00,40,R,ugm-3
04-02-2009,16:00,30,R,ugm-3
04-02-2009,17:00,8,R,ugm-3
04-02-2009,18:00,2,R,ugm-3
04-02-2009,19:00,26,R,ugm-3
04-02-2009,20:00,30,R,ugm-3
04-02-2009,21:00,8,R,ugm-3
04-02-2009,22:00,2,R,ugm-3
04-02-2009,23:00,14,R,ugm-3
04-02-2009,24:00,18,R,ugm-3
05-02-2009,01:00,22,R,ugm-3
05-02-2009,02:00,20,R,ugm-3
05-02-2009,03:00,14,R,ugm-3
05-02-2009,04:00,18,R,ugm-3
05-02-2009,05:00,22,R,ugm-3
05-02-2009,06:00,24,R,ugm-3
05-02-2009,07:00,16,R,ugm-3
05-02-2009,08:00,18,R,ugm-3
05-02-2009,09:00,16,R,ugm-3
05-02-2009,10:00,18,R,ugm-3
05-02-2009,11:00,22,R,ugm-3
05-02-2009,12:00,26,R,ugm-3
05-02-2009,13:00,24,R,ugm-3
05-02-2009,14:00,22,R,ugm-3
05-02-2009,15:00,18,R,ugm-3
05-02-2009,16:00,20,R,ugm-3